星链-5416 (STARLINK-5416 )

导读

STARLINK-5416是美国太空探索技术公司星链互联网卫星星座的一员,于2022年12月28日发射入轨,属于星链卫星的第二阶段组网卫星。它运行在近地轨道,旨在为全球尤其是偏远地区提供高速低延迟的宽带互联网服务,延续了星链星座批量部署、持续扩展全球覆盖的组网节奏。

Basic Information
目录编号:
54855
目录名称:
STARLINK-5416
国际标识:
2022-177AM
轨道中心:
EARTH
卫星名称:
星链-5416
卫星全名:
星链-5416 (STARLINK-5416 )
卫星状态:
在轨 (已飞行1346 天)
发射日期:
2022-12-28 UTC
国别 :
美国 (US)
星等 :
--
Orbit Information
数据来源 国际轨道数据 AOE轨道数据
星历时间 2026-09-04T07:57:15+0800
11小时前
查看轨道信息
2026-09-03T23:00:00+0800
20小时前
查看轨道信息
半长轴 6861.171km 6861.17km
偏心率 0.0001305 0.0000859
轨道倾角 43.002° 42.993°
近地点辐角 269.061° 153.626°
升交点赤经 194.330° 196.430°
平近点角 91.009° 312.314°
近地点 482.138km 482.443km
远地点 483.93km 483.623km
周期 94.266分钟 94.266分钟
每日圈数 15.275853 15.275855
Detailed Information
固有亮度:
5
最大亮度:
2.5
卫星平台:
Starlink v1.5
覆盖范围:
全球
运营商:
太空探索技术公司
运营商所在国:
美国
制造商(研发单位):
太空探索技术公司
制造商所在国:
美国
使用方式:
暂无
Satellite Introduction
星链(Starlink)计划是由太空探索技术公司(SpaceX)提出的一个巨型低轨卫星互联网星座项目,计划在2019年至2024年间在太空搭建由约1.2万颗卫星组成的“星链”网络,其中1584颗将部署在地球上空550千米处的近地轨道,并从2020年开始工作。该卫星仍在工作。
2D Orbit Map
3D Orbit Map
Orbit Altitude Analysis Chart
Orbit Inclination Analysis Chart
Orbit Comprehensive Analysis Chart
View Comprehensive Chart